Time,TemperatureF,DewpointF,PressureIn,WindDirection,WindDirectionDegrees,WindSpeedMPH,WindSpeedGustMPH,Humidity,HourlyPrecipIn,Conditions,Clouds,dailyrainin,SoftwareType,DateUTC
2013-01-21 00:04:00,5.5,-14.6,30.16,WNW,292,6.9,10.4,38,0.00,CLR,,0.00,WeatherDisplay:10.37,2013-01-21 06:04:00,
2013-01-21 00:09:00,5.5,-14.6,30.16,WNW,292,7.6,11.5,38,0.00,CLR,,0.00,WeatherDisplay:10.37,2013-01-21 06:09:00,
2013-01-21 00:14:00,5.4,-14.8,30.16,West,270,2.6,3.5,38,0.00,CLR,,0.00,WeatherDisplay:10.37,2013-01-21 06:14:00,
2013-01-21 00:19:00,5.0,-15.1,30.16,WNW,292,4.9,6.2,38,0.00,CLR,,0.00,WeatherDisplay:10.37,2013-01-21 06:19:00,
2013-01-21 00:24:00,5.0,-15.1,30.16,NW,315,2.4,4.6,38,0.00,CLR,,0.00,WeatherDisplay:10.37,2013-01-21 06:24:00,
2013-01-21 00:29:00,4.8,-15.3,30.16,West,270,3.1,4.6,38,0.00,CLR,,0.00,WeatherDisplay:10.37,2013-01-21 06:29:00,
2013-01-21 00:34:00,4.6,-15.4,30.16,WNW,292,2.2,2.3,38,0.00,CLR,,0.00,WeatherDisplay:10.37,2013-01-21 06:34:00,
2013-01-21 00:39:00,4.5,-15.6,30.16,West,270,1.4,2.3,38,0.00,CLR,,0.00,WeatherDisplay:10.37,2013-01-21 06:39:00,
2013-01-21 00:44:00,4.1,-15.9,30.16,WNW,292,2.0,4.0,38,0.00,CLR,,0.00,WeatherDisplay:10.37,2013-01-21 06:44:00,
2013-01-21 00:49:00,4.1,-15.9,30.16,West,270,3.8,5.8,38,0.00,CLR,,0.00,WeatherDisplay:10.37,2013-01-21 06:49:00,
2013-01-21 00:54:00,4.1,-15.9,30.16,West,270,2.9,4.0,38,0.00,CLR,,0.00,WeatherDisplay:10.37,2013-01-21 06:54:00,
2013-01-21 00:59:00,3.9,-16.1,30.16,WNW,292,2.4,3.5,38,0.00,CLR,,0.00,WeatherDisplay:10.37,2013-01-21 06:59:00,
2013-01-21 01:04:00,3.7,-16.3,30.16,WNW,292,3.3,4.6,38,0.00,CLR,,0.00,WeatherDisplay:10.37,2013-01-21 07:04:00,
2013-01-21 01:09:00,3.7,-16.3,30.16,NW,315,1.4,2.3,38,0.00,CLR,,0.00,WeatherDisplay:10.37,2013-01-21 07:09:00,
2013-01-21 01:14:00,3.7,-16.3,30.13,WSW,248,2.0,3.5,38,0.00,CLR,,0.00,WeatherDisplay:10.37,2013-01-21 07:14:00,
2013-01-21 01:19:00,3.6,-16.4,30.13,West,270,1.4,3.5,38,0.00,CLR,,0.00,WeatherDisplay:10.37,2013-01-21 07:19:00,
2013-01-21 01:24:00,3.4,-16.6,30.13,WNW,292,3.8,5.8,38,0.00,CLR,,0.00,WeatherDisplay:10.37,2013-01-21 07:24:00,
2013-01-21 01:29:00,3.4,-16.6,30.16,West,270,1.1,1.1,38,0.00,CLR,,0.00,WeatherDisplay:10.37,2013-01-21 07:29:00,
2013-01-21 01:34:00,3.6,-16.4,30.16,SW,225,0.9,2.3,38,0.00,CLR,,0.00,WeatherDisplay:10.37,2013-01-21 07:34:00,
2013-01-21 01:39:00,3.7,-16.3,30.16,NW,315,0.0,0.0,38,0.00,CLR,,0.00,WeatherDisplay:10.37,2013-01-21 07:39:00,
2013-01-21 01:44:00,3.9,-16.1,30.16,WNW,292,0.0,0.0,38,0.00,CLR,,0.00,WeatherDisplay:10.37,2013-01-21 07:44:00,
2013-01-21 01:49:00,3.9,-16.1,30.16,WNW,292,2.4,3.5,38,0.00,CLR,,0.00,WeatherDisplay:10.37,2013-01-21 07:49:00,
2013-01-21 01:54:00,4.1,-15.9,30.16,WNW,292,1.1,1.4,38,0.00,CLR,,0.00,WeatherDisplay:10.37,2013-01-21 07:54:00,
2013-01-21 01:59:00,4.3,-15.8,30.13,West,270,1.1,2.4,38,0.00,CLR,,0.00,WeatherDisplay:10.37,2013-01-21 07:59:00,
2013-01-21 02:04:00,4.5,-15.6,30.13,WSW,248,2.0,5.6,38,0.00,CLR,,0.00,WeatherDisplay:10.37,2013-01-21 08:04:00,
2013-01-21 02:09:00,4.6,-15.4,30.13,NNW,338,2.6,4.6,38,0.00,CLR,,0.00,WeatherDisplay:10.37,2013-01-21 08:09:00,
2013-01-21 02:14:00,4.8,-15.3,30.16,NW,315,2.6,4.6,38,0.00,CLR,,0.00,WeatherDisplay:10.37,2013-01-21 08:14:00,
2013-01-21 02:19:00,4.6,-15.4,30.16,WNW,292,3.3,4.6,38,0.00,CLR,,0.00,WeatherDisplay:10.37,2013-01-21 08:19:00,
2013-01-21 02:24:00,4.6,-15.4,30.16,NW,315,3.8,4.6,38,0.00,CLR,,0.00,WeatherDisplay:10.37,2013-01-21 08:24:00,
2013-01-21 02:29:00,4.6,-15.4,30.16,WNW,292,7.6,10.4,38,0.00,CLR,,0.00,WeatherDisplay:10.37,2013-01-21 08:29:00,
2013-01-21 02:34:00,4.5,-15.6,30.16,WNW,292,6.2,11.5,38,0.00,CLR,,0.00,WeatherDisplay:10.37,2013-01-21 08:34:00,
2013-01-21 02:39:00,4.3,-15.8,30.13,West,270,7.1,10.4,38,0.00,CLR,,0.00,WeatherDisplay:10.37,2013-01-21 08:39:00,
2013-01-21 02:44:00,4.1,-15.9,30.13,WNW,292,4.7,6.9,38,0.00,CLR,,0.00,WeatherDisplay:10.37,2013-01-21 08:44:00,
2013-01-21 02:49:00,3.7,-16.3,30.13,WNW,292,5.4,6.9,38,0.00,CLR,,0.00,WeatherDisplay:10.37,2013-01-21 08:49:00,
2013-01-21 02:54:00,3.4,-16.6,30.16,WNW,292,8.7,12.7,38,0.00,CLR,,0.00,WeatherDisplay:10.37,2013-01-21 08:54:00,
2013-01-21 02:59:00,3.0,-16.9,30.16,WNW,292,9.0,10.4,38,0.00,CLR,,0.00,WeatherDisplay:10.37,2013-01-21 08:59:00,
2013-01-21 03:04:00,2.8,-17.1,30.16,West,270,8.1,11.2,38,0.00,CLR,,0.00,WeatherDisplay:10.37,2013-01-21 09:04:00,
2013-01-21 03:09:00,2.5,-17.4,30.16,West,270,6.2,9.2,38,0.00,CLR,,0.00,WeatherDisplay:10.37,2013-01-21 09:09:00,
2013-01-21 03:14:00,2.3,-17.6,30.16,WNW,292,5.9,11.5,38,0.00,CLR,,0.00,WeatherDisplay:10.37,2013-01-21 09:14:00,
2013-01-21 03:19:00,2.1,-17.7,30.16,NW,315,6.4,8.1,38,0.00,CLR,,0.00,WeatherDisplay:10.37,2013-01-21 09:19:00,
2013-01-21 03:24:00,1.9,-17.9,30.13,West,270,8.1,11.5,38,0.00,CLR,,0.00,WeatherDisplay:10.37,2013-01-21 09:24:00,
2013-01-21 03:29:00,1.8,-18.1,30.13,NW,315,7.8,9.2,38,0.00,CLR,,0.00,WeatherDisplay:10.37,2013-01-21 09:29:00,
2013-01-21 03:34:00,1.6,-18.2,30.13,WNW,292,5.6,9.2,38,0.00,CLR,,0.00,WeatherDisplay:10.37,2013-01-21 09:34:00,
2013-01-21 03:40:00,1.6,-18.2,30.13,WNW,292,9.2,10.4,38,0.00,CLR,,0.00,WeatherDisplay:10.37,2013-01-21 09:40:00,
2013-01-21 03:45:00,1.6,-18.2,30.13,NW,315,4.9,8.1,38,0.00,CLR,,0.00,WeatherDisplay:10.37,2013-01-21 09:45:00,
2013-01-21 03:50:00,1.4,-18.4,30.13,WNW,292,8.1,10.9,38,0.00,CLR,,0.00,WeatherDisplay:10.37,2013-01-21 09:50:00,
2013-01-21 03:55:00,1.2,-18.5,30.13,NNW,338,6.9,10.4,38,0.00,CLR,,0.00,WeatherDisplay:10.37,2013-01-21 09:55:00,
2013-01-21 04:00:00,1.2,-18.5,30.13,NW,315,8.5,12.7,38,0.00,CLR,,0.00,WeatherDisplay:10.37,2013-01-21 10:00:00,
2013-01-21 04:05:00,1.2,-18.5,30.13,NW,315,5.4,6.9,38,0.00,CLR,,0.00,WeatherDisplay:10.37,2013-01-21 10:05:00,
2013-01-21 04:10:00,1.0,-18.7,30.13,WNW,292,3.6,11.5,38,0.00,CLR,,0.00,WeatherDisplay:10.37,2013-01-21 10:10:00,
2013-01-21 04:15:00,0.9,-18.9,30.13,NW,315,6.2,10.4,38,0.00,CLR,,0.00,WeatherDisplay:10.37,2013-01-21 10:15:00,
2013-01-21 04:20:00,0.7,-19.0,30.13,West,270,7.4,17.3,38,0.00,CLR,,0.00,WeatherDisplay:10.37,2013-01-21 10:20:00,
2013-01-21 04:25:00,0.7,-19.0,30.13,WSW,248,4.5,5.8,38,0.00,CLR,,0.00,WeatherDisplay:10.37,2013-01-21 10:25:00,
2013-01-21 04:30:00,0.5,-19.2,30.13,WNW,292,7.6,13.8,38,0.00,CLR,,0.00,WeatherDisplay:10.37,2013-01-21 10:30:00,
2013-01-21 04:35:00,0.5,-19.2,30.13,WNW,292,8.5,10.4,38,0.00,CLR,,0.00,WeatherDisplay:10.37,2013-01-21 10:35:00,
2013-01-21 04:40:00,0.5,-19.2,30.13,WNW,292,6.0,7.4,38,0.00,CLR,,0.00,WeatherDisplay:10.37,2013-01-21 10:40:00,
2013-01-21 04:45:00,0.3,-19.4,30.13,NW,315,6.2,10.4,38,0.00,CLR,,0.00,WeatherDisplay:10.37,2013-01-21 10:45:00,
2013-01-21 04:50:00,0.3,-19.4,30.13,WNW,292,4.5,5.8,38,0.00,CLR,,0.00,WeatherDisplay:10.37,2013-01-21 10:50:00,
2013-01-21 04:55:00,0.1,-19.5,30.13,NW,315,7.8,8.1,38,0.00,CLR,,0.00,WeatherDisplay:10.37,2013-01-21 10:55:00,
2013-01-21 05:00:00,0.0,-19.7,30.13,WNW,292,9.2,11.5,38,0.00,CLR,,0.00,WeatherDisplay:10.37,2013-01-21 11:00:00,
2013-01-21 05:05:00,0.0,-19.7,30.13,WNW,292,6.0,7.4,38,0.00,CLR,,0.00,WeatherDisplay:10.37,2013-01-21 11:05:00,
2013-01-21 05:10:00,-0.2,-19.8,30.13,NW,315,6.2,8.1,38,0.00,CLR,,0.00,WeatherDisplay:10.37,2013-01-21 11:10:00,
2013-01-21 05:15:00,-0.4,-20.0,30.13,NW,315,10.0,12.7,38,0.00,CLR,,0.00,WeatherDisplay:10.37,2013-01-21 11:15:00,
2013-01-21 05:20:00,-0.4,-20.0,30.13,NW,315,10.5,11.5,38,0.00,CLR,,0.00,WeatherDisplay:10.37,2013-01-21 11:20:00,
2013-01-21 05:25:00,-0.6,-20.2,30.16,WNW,292,7.1,10.4,38,0.00,CLR,,0.00,WeatherDisplay:10.37,2013-01-21 11:25:00,
2013-01-21 05:30:00,-0.6,-20.2,30.16,WNW,292,6.4,9.2,38,0.00,CLR,,0.00,WeatherDisplay:10.37,2013-01-21 11:30:00,
2013-01-21 05:35:00,-0.6,-20.2,30.16,NW,315,9.2,11.5,38,0.00,CLR,,0.00,WeatherDisplay:10.37,2013-01-21 11:35:00,
2013-01-21 05:40:00,-0.6,-20.2,30.13,WNW,292,9.2,11.5,38,0.00,CLR,,0.00,WeatherDisplay:10.37,2013-01-21 11:40:00,
2013-01-21 05:45:00,-0.9,-20.5,30.13,NW,315,11.8,13.8,38,0.00,CLR,,0.00,WeatherDisplay:10.37,2013-01-21 11:45:00,
2013-01-21 05:50:00,-1.3,-20.8,30.13,WNW,292,10.9,18.5,38,0.00,CLR,,0.00,WeatherDisplay:10.37,2013-01-21 11:50:00,
2013-01-21 05:55:00,-1.5,-21.0,30.16,WNW,292,10.5,12.7,38,0.00,CLR,,0.00,WeatherDisplay:10.37,2013-01-21 11:55:00,
2013-01-21 06:00:00,-1.8,-21.3,30.16,WNW,292,8.7,13.8,38,0.00,CLR,,0.00,WeatherDisplay:10.37,2013-01-21 12:00:00,
2013-01-21 06:05:00,-2.0,-21.5,30.16,NNW,338,10.2,12.7,38,0.00,CLR,,0.00,WeatherDisplay:10.37,2013-01-21 12:05:00,
2013-01-21 06:10:00,-2.2,-21.6,30.16,West,270,9.4,12.7,38,0.00,CLR,,0.00,WeatherDisplay:10.37,2013-01-21 12:10:00,
2013-01-21 06:15:00,-2.6,-22.0,30.16,NNW,338,9.4,13.8,38,0.00,CLR,,0.00,WeatherDisplay:10.37,2013-01-21 12:15:00,
2013-01-21 06:20:00,-2.7,-22.1,30.16,NW,315,8.1,11.5,38,0.00,CLR,,0.00,WeatherDisplay:10.37,2013-01-21 12:20:00,
2013-01-21 06:25:00,-3.1,-22.5,30.16,WNW,292,10.7,15.0,38,0.00,CLR,,0.00,WeatherDisplay:10.37,2013-01-21 12:25:00,
2013-01-21 06:30:00,-3.1,-22.5,30.16,NW,315,4.7,5.8,38,0.00,CLR,,0.00,WeatherDisplay:10.37,2013-01-21 12:30:00,
2013-01-21 06:35:00,-3.3,-22.6,30.16,NW,315,8.5,13.8,38,0.00,CLR,,0.00,WeatherDisplay:10.37,2013-01-21 12:35:00,
2013-01-21 06:40:00,-3.5,-22.8,30.16,NNW,338,5.6,8.1,38,0.00,CLR,,0.00,WeatherDisplay:10.37,2013-01-21 12:40:00,
2013-01-21 06:45:00,-3.5,-22.8,30.16,NW,315,8.7,10.4,38,0.00,CLR,,0.00,WeatherDisplay:10.37,2013-01-21 12:45:00,
2013-01-21 06:50:00,-3.6,-22.9,30.16,NW,315,6.7,11.5,38,0.00,CLR,,0.00,WeatherDisplay:10.37,2013-01-21 12:50:00,
2013-01-21 06:55:00,-3.8,-23.1,30.16,WNW,292,7.8,12.7,38,0.00,CLR,,0.00,WeatherDisplay:10.37,2013-01-21 12:55:00,
2013-01-21 07:00:00,-3.8,-23.1,30.16,WNW,292,6.2,9.2,38,0.00,CLR,,0.00,WeatherDisplay:10.37,2013-01-21 13:00:00,
2013-01-21 07:05:00,-3.8,-23.1,30.16,WNW,292,6.2,8.1,38,0.00,CLR,,0.00,WeatherDisplay:10.37,2013-01-21 13:05:00,
2013-01-21 07:10:00,-4.0,-23.3,30.16,WNW,292,7.6,12.7,38,0.00,CLR,,0.00,WeatherDisplay:10.37,2013-01-21 13:10:00,
2013-01-21 07:15:00,-4.2,-23.4,30.16,WNW,292,9.0,12.7,38,0.00,CLR,,0.00,WeatherDisplay:10.37,2013-01-21 13:15:00,
2013-01-21 07:20:00,-4.4,-23.6,30.16,North,0,9.4,10.4,38,0.00,CLR,,0.00,WeatherDisplay:10.37,2013-01-21 13:20:00,
2013-01-21 07:25:00,-4.4,-23.6,30.19,WNW,292,7.4,9.2,38,0.00,CLR,,0.00,WeatherDisplay:10.37,2013-01-21 13:25:00,
2013-01-21 07:30:00,-4.5,-23.8,30.19,NW,315,7.6,14.3,38,0.00,CLR,,0.00,WeatherDisplay:10.37,2013-01-21 13:30:00,
2013-01-21 07:35:00,-4.7,-23.9,30.19,WNW,292,9.0,12.7,38,0.00,CLR,,0.00,WeatherDisplay:10.37,2013-01-21 13:35:00,
2013-01-21 07:40:00,-4.7,-23.9,30.19,West,270,7.8,9.2,38,0.00,CLR,,0.00,WeatherDisplay:10.37,2013-01-21 13:40:00,
2013-01-21 07:45:00,-4.7,-23.9,30.19,WNW,292,7.6,9.2,38,0.00,CLR,,0.00,WeatherDisplay:10.37,2013-01-21 13:45:00,
2013-01-21 07:50:00,-4.9,-24.1,30.19,WNW,292,11.2,15.0,38,0.00,CLR,,0.00,WeatherDisplay:10.37,2013-01-21 13:50:00,
2013-01-21 07:55:00,-4.2,-23.4,30.19,North,0,6.0,6.2,38,0.00,CLR,,0.00,WeatherDisplay:10.37,2013-01-21 13:55:00,
2013-01-21 08:00:00,-4.5,-23.8,30.19,NW,315,9.2,12.7,38,0.00,CLR,,0.00,WeatherDisplay:10.37,2013-01-21 14:00:00,
2013-01-21 08:05:00,-4.4,-23.6,30.19,NW,315,7.8,11.5,38,0.00,CLR,,0.00,WeatherDisplay:10.37,2013-01-21 14:05:00,
2013-01-21 08:10:00,-3.6,-22.9,30.19,NW,315,10.0,13.8,38,0.00,CLR,,0.00,WeatherDisplay:10.37,2013-01-21 14:10:00,
2013-01-21 08:15:00,-2.9,-22.3,30.19,WNW,292,4.5,8.1,38,0.00,CLR,,0.00,WeatherDisplay:10.37,2013-01-21 14:15:00,
2013-01-21 08:20:00,-1.5,-21.0,30.19,West,270,4.7,8.1,38,0.00,CLR,,0.00,WeatherDisplay:10.37,2013-01-21 14:20:00,
2013-01-21 08:25:00,-0.9,-20.5,30.19,NW,315,4.7,9.2,38,0.00,CLR,,0.00,WeatherDisplay:10.37,2013-01-21 14:25:00,
2013-01-21 08:30:00,-1.5,-21.0,30.19,WNW,292,7.8,12.7,38,0.00,CLR,,0.00,WeatherDisplay:10.37,2013-01-21 14:30:00,
2013-01-21 08:35:00,-1.7,-21.1,30.19,WNW,292,7.8,10.4,38,0.00,CLR,,0.00,WeatherDisplay:10.37,2013-01-21 14:35:00,
2013-01-21 08:40:00,-0.6,-20.2,30.19,WNW,292,7.1,10.4,38,0.00,CLR,,0.00,WeatherDisplay:10.37,2013-01-21 14:40:00,
2013-01-21 08:45:00,-0.2,-19.8,30.19,North,0,5.6,6.4,38,0.00,CLR,,0.00,WeatherDisplay:10.37,2013-01-21 14:45:00,
2013-01-21 08:50:00,0.0,-19.7,30.19,West,270,6.9,8.1,38,0.00,CLR,,0.00,WeatherDisplay:10.37,2013-01-21 14:50:00,
2013-01-21 08:55:00,0.0,-19.7,30.19,WNW,292,6.9,9.2,38,0.00,CLR,,0.00,WeatherDisplay:10.37,2013-01-21 14:55:00,
2013-01-21 09:00:00,-1.1,-20.7,30.19,WNW,292,10.7,12.7,38,0.00,CLR,,0.00,WeatherDisplay:10.37,2013-01-21 15:00:00,
2013-01-21 09:05:00,0.0,-19.7,30.19,WNW,292,5.9,8.7,38,0.00,CLR,,0.00,WeatherDisplay:10.37,2013-01-21 15:05:00,
2013-01-21 09:10:00,-0.8,-20.3,30.19,NW,315,11.4,17.3,38,0.00,CLR,,0.00,WeatherDisplay:10.37,2013-01-21 15:10:00,
2013-01-21 09:15:00,-0.6,-20.2,30.19,WNW,292,7.1,10.4,38,0.00,CLR,,0.00,WeatherDisplay:10.37,2013-01-21 15:15:00,
2013-01-21 09:20:00,0.0,-19.7,30.19,NW,315,6.7,8.1,38,0.00,CLR,,0.00,WeatherDisplay:10.37,2013-01-21 15:20:00,
2013-01-21 09:25:00,1.4,-18.4,30.22,WNW,292,4.0,6.9,38,0.00,CLR,,0.00,WeatherDisplay:10.37,2013-01-21 15:25:00,
2013-01-21 09:30:00,0.5,-19.2,30.22,WNW,292,8.7,15.0,38,0.00,CLR,,0.00,WeatherDisplay:10.37,2013-01-21 15:30:00,
2013-01-21 09:35:00,0.1,-19.5,30.22,WNW,292,9.4,17.3,38,0.00,CLR,,0.00,WeatherDisplay:10.37,2013-01-21 15:35:00,
2013-01-21 09:40:00,1.2,-18.5,30.22,West,270,3.8,13.0,38,0.00,CLR,,0.00,WeatherDisplay:10.37,2013-01-21 15:40:00,
2013-01-21 09:45:00,0.9,-18.9,30.22,NW,315,6.7,11.5,38,0.00,CLR,,0.00,WeatherDisplay:10.37,2013-01-21 15:45:00,
2013-01-21 09:50:00,1.6,-18.2,30.22,WNW,292,6.2,6.9,38,0.00,CLR,,0.00,WeatherDisplay:10.37,2013-01-21 15:50:00,
2013-01-21 09:55:00,0.3,-19.4,30.22,WNW,292,8.7,13.8,38,0.00,CLR,,0.00,WeatherDisplay:10.37,2013-01-21 15:55:00,
2013-01-21 10:00:00,0.3,-19.4,30.22,NW,315,9.4,11.5,38,0.00,CLR,,0.00,WeatherDisplay:10.37,2013-01-21 16:00:00,
2013-01-21 10:05:00,0.7,-19.0,30.22,WNW,292,6.2,16.3,38,0.00,CLR,,0.00,WeatherDisplay:10.37,2013-01-21 16:05:00,
2013-01-21 10:10:00,1.9,-17.9,30.22,WNW,292,5.4,10.9,38,0.00,CLR,,0.00,WeatherDisplay:10.37,2013-01-21 16:10:00,
2013-01-21 10:15:00,0.7,-19.0,30.22,West,270,10.0,13.8,38,0.00,CLR,,0.00,WeatherDisplay:10.37,2013-01-21 16:15:00,
2013-01-21 10:20:00,1.4,-18.4,30.22,WNW,292,6.2,11.2,38,0.00,CLR,,0.00,WeatherDisplay:10.37,2013-01-21 16:20:00,
2013-01-21 10:25:00,1.2,-18.5,30.22,WNW,292,6.0,13.2,38,0.00,CLR,,0.00,WeatherDisplay:10.37,2013-01-21 16:25:00,
2013-01-21 10:30:00,0.0,-19.7,30.22,WNW,292,10.0,12.7,38,0.00,CLR,,0.00,WeatherDisplay:10.37,2013-01-21 16:30:00,
2013-01-21 10:35:00,-0.6,-20.2,30.22,WNW,292,8.1,13.2,38,0.00,CLR,,0.00,WeatherDisplay:10.37,2013-01-21 16:35:00,
2013-01-21 10:40:00,0.1,-19.5,30.22,WNW,292,5.4,10.4,38,0.00,CLR,,0.00,WeatherDisplay:10.37,2013-01-21 16:40:00,
2013-01-21 10:45:00,-0.2,-19.8,30.22,NW,315,9.0,17.3,38,0.00,CLR,,0.00,WeatherDisplay:10.37,2013-01-21 16:45:00,
2013-01-21 10:50:00,-1.3,-20.8,30.22,West,270,9.2,11.5,38,0.00,CLR,,0.00,WeatherDisplay:10.37,2013-01-21 16:50:00,
2013-01-21 10:55:00,-1.8,-21.3,30.22,WNW,292,11.8,12.7,38,0.00,CLR,,0.00,WeatherDisplay:10.37,2013-01-21 16:55:00,
2013-01-21 11:00:00,-1.8,-21.3,30.22,WNW,292,7.4,17.3,38,0.00,CLR,,0.00,WeatherDisplay:10.37,2013-01-21 17:00:00,
2013-01-21 11:05:00,-0.6,-20.2,30.22,WNW,292,8.5,12.3,38,0.00,CLR,,0.00,WeatherDisplay:10.37,2013-01-21 17:05:00,
2013-01-21 11:10:00,0.3,-19.4,30.22,WNW,292,7.8,17.3,38,0.00,CLR,,0.00,WeatherDisplay:10.37,2013-01-21 17:10:00,
2013-01-21 11:16:00,1.0,-18.7,30.22,West,270,7.8,11.5,38,0.00,CLR,,0.00,WeatherDisplay:10.37,2013-01-21 17:16:00,
2013-01-21 11:21:00,1.6,-18.2,30.22,WNW,292,10.2,13.8,38,0.00,CLR,,0.00,WeatherDisplay:10.37,2013-01-21 17:21:00,
2013-01-21 11:26:00,1.6,-18.2,30.22,WNW,292,6.4,13.8,38,0.00,CLR,,0.00,WeatherDisplay:10.37,2013-01-21 17:26:00,
2013-01-21 11:31:00,0.9,-18.9,30.22,WNW,292,9.0,11.5,38,0.00,CLR,,0.00,WeatherDisplay:10.37,2013-01-21 17:31:00,
2013-01-21 11:36:00,1.2,-18.5,30.22,WNW,292,4.7,10.4,38,0.00,CLR,,0.00,WeatherDisplay:10.37,2013-01-21 17:36:00,
2013-01-21 11:41:00,1.2,-18.5,30.19,NNW,338,4.9,6.9,38,0.00,CLR,,0.00,WeatherDisplay:10.37,2013-01-21 17:41:00,
2013-01-21 11:46:00,0.9,-18.9,30.19,WNW,292,6.0,12.7,38,0.00,CLR,,0.00,WeatherDisplay:10.37,2013-01-21 17:46:00,
2013-01-21 11:51:00,0.5,-19.2,30.19,WNW,292,5.6,14.5,38,0.00,CLR,,0.00,WeatherDisplay:10.37,2013-01-21 17:51:00,
2013-01-21 11:56:00,0.3,-19.4,30.19,NW,315,9.0,10.9,38,0.00,CLR,,0.00,WeatherDisplay:10.37,2013-01-21 17:56:00,
2013-01-21 12:01:00,-0.9,-20.5,30.19,WNW,292,10.7,16.1,38,0.00,CLR,,0.00,WeatherDisplay:10.37,2013-01-21 18:01:00,
2013-01-21 12:06:00,-1.3,-20.8,30.19,NW,315,10.2,11.5,38,0.00,CLR,,0.00,WeatherDisplay:10.37,2013-01-21 18:06:00,
2013-01-21 12:11:00,-0.6,-20.2,30.19,WNW,292,9.2,13.8,38,0.00,CLR,,0.00,WeatherDisplay:10.37,2013-01-21 18:11:00,
2013-01-21 12:16:00,-0.6,-20.2,30.19,NW,315,9.0,11.5,38,0.00,CLR,,0.00,WeatherDisplay:10.37,2013-01-21 18:16:00,
2013-01-21 12:21:00,-0.8,-20.3,30.19,NW,315,7.8,10.4,38,0.00,CLR,,0.00,WeatherDisplay:10.37,2013-01-21 18:21:00,
2013-01-21 12:26:00,-0.9,-20.5,30.19,NW,315,6.0,9.2,38,0.00,CLR,,0.00,WeatherDisplay:10.37,2013-01-21 18:26:00,
2013-01-21 12:31:00,-1.3,-20.8,30.19,WNW,292,3.8,5.8,38,0.00,CLR,,0.00,WeatherDisplay:10.37,2013-01-21 18:31:00,
2013-01-21 12:36:00,-1.3,-20.8,30.19,WNW,292,10.9,13.8,38,0.00,CLR,,0.00,WeatherDisplay:10.37,2013-01-21 18:36:00,
2013-01-21 12:41:00,-0.9,-20.5,30.16,NW,315,9.8,15.0,38,0.00,CLR,,0.00,WeatherDisplay:10.37,2013-01-21 18:41:00,
2013-01-21 12:46:00,-0.9,-20.5,30.16,NW,315,7.1,10.4,38,0.00,CLR,,0.00,WeatherDisplay:10.37,2013-01-21 18:46:00,
2013-01-21 12:51:00,-0.9,-20.5,30.16,NNW,338,7.8,13.8,38,0.00,CLR,,0.00,WeatherDisplay:10.37,2013-01-21 18:51:00,
2013-01-21 12:56:00,0.0,-19.7,30.19,West,270,6.7,10.7,38,0.00,CLR,,0.00,WeatherDisplay:10.37,2013-01-21 18:56:00,
2013-01-21 13:01:00,0.7,-19.0,30.19,WSW,248,9.2,13.8,38,0.00,CLR,,0.00,WeatherDisplay:10.37,2013-01-21 19:01:00,
2013-01-21 13:06:00,0.3,-19.4,30.19,WSW,248,8.7,11.5,38,0.00,CLR,,0.00,WeatherDisplay:10.37,2013-01-21 19:06:00,
2013-01-21 13:11:00,0.5,-19.2,30.16,West,270,5.9,12.3,38,0.00,CLR,,0.00,WeatherDisplay:10.37,2013-01-21 19:11:00,
2013-01-21 13:16:00,-0.2,-19.8,30.16,West,270,7.1,11.5,38,0.00,CLR,,0.00,WeatherDisplay:10.37,2013-01-21 19:16:00,
2013-01-21 13:21:00,-0.6,-20.2,30.16,WSW,248,8.5,10.4,38,0.00,CLR,,0.00,WeatherDisplay:10.37,2013-01-21 19:21:00,
2013-01-21 13:26:00,0.5,-19.2,30.19,WNW,292,8.5,10.4,38,0.00,CLR,,0.00,WeatherDisplay:10.37,2013-01-21 19:26:00,
2013-01-21 13:31:00,0.0,-19.7,30.19,NW,315,6.4,8.1,38,0.00,CLR,,0.00,WeatherDisplay:10.37,2013-01-21 19:31:00,
2013-01-21 13:36:00,0.0,-19.7,30.19,NW,315,9.4,11.5,38,0.00,CLR,,0.00,WeatherDisplay:10.37,2013-01-21 19:36:00,
2013-01-21 13:41:00,0.3,-19.4,30.19,West,270,6.2,9.2,38,0.00,CLR,,0.00,WeatherDisplay:10.37,2013-01-21 19:41:00,
2013-01-21 13:46:00,-0.6,-20.2,30.19,WNW,292,5.4,8.1,38,0.00,CLR,,0.00,WeatherDisplay:10.37,2013-01-21 19:46:00,
2013-01-21 13:51:00,-0.8,-20.3,30.19,WSW,248,9.7,15.0,38,0.00,CLR,,0.00,WeatherDisplay:10.37,2013-01-21 19:51:00,
2013-01-21 13:56:00,-0.4,-20.0,30.19,West,270,8.1,11.5,38,0.00,CLR,,0.00,WeatherDisplay:10.37,2013-01-21 19:56:00,
2013-01-21 14:01:00,-0.2,-19.8,30.19,NNW,338,6.9,15.0,38,0.00,CLR,,0.00,WeatherDisplay:10.37,2013-01-21 20:01:00,
2013-01-21 14:06:00,0.3,-19.4,30.19,WNW,292,4.9,6.9,38,0.00,CLR,,0.00,WeatherDisplay:10.37,2013-01-21 20:06:00,
2013-01-21 14:11:00,0.3,-19.4,30.19,West,270,8.7,13.5,38,0.00,CLR,,0.00,WeatherDisplay:10.37,2013-01-21 20:11:00,
2013-01-21 14:16:00,0.0,-19.7,30.19,NW,315,5.9,6.9,38,0.00,CLR,,0.00,WeatherDisplay:10.37,2013-01-21 20:16:00,
2013-01-21 14:21:00,-0.6,-20.2,30.19,WSW,248,5.6,6.9,38,0.00,CLR,,0.00,WeatherDisplay:10.37,2013-01-21 20:21:00,
2013-01-21 14:26:00,0.3,-19.4,30.19,SW,225,3.8,6.2,38,0.00,CLR,,0.00,WeatherDisplay:10.37,2013-01-21 20:26:00,
2013-01-21 14:31:00,0.1,-19.5,30.19,West,270,6.2,14.5,38,0.00,CLR,,0.00,WeatherDisplay:10.37,2013-01-21 20:31:00,
2013-01-21 14:36:00,0.0,-19.7,30.19,WNW,292,4.7,7.6,38,0.00,CLR,,0.00,WeatherDisplay:10.37,2013-01-21 20:36:00,
2013-01-21 14:41:00,1.2,-18.5,30.22,NW,315,4.3,5.8,38,0.00,CLR,,0.00,WeatherDisplay:10.37,2013-01-21 20:41:00,
2013-01-21 14:46:00,1.0,-18.7,30.22,West,270,7.8,12.7,38,0.00,CLR,,0.00,WeatherDisplay:10.37,2013-01-21 20:46:00,
2013-01-21 14:51:00,1.6,-18.2,30.22,WNW,292,6.2,6.9,38,0.00,CLR,,0.00,WeatherDisplay:10.37,2013-01-21 20:51:00,
2013-01-21 14:56:00,1.0,-18.7,30.19,NNW,338,6.7,9.8,38,0.00,CLR,,0.00,WeatherDisplay:10.37,2013-01-21 20:56:00,
2013-01-21 15:01:00,1.4,-18.4,30.19,SW,225,6.7,10.7,38,0.00,CLR,,0.00,WeatherDisplay:10.37,2013-01-21 21:01:00,
2013-01-21 15:06:00,1.2,-18.5,30.19,West,270,5.9,6.2,38,0.00,CLR,,0.00,WeatherDisplay:10.37,2013-01-21 21:06:00,
2013-01-21 15:11:00,1.2,-18.5,30.19,NW,315,8.5,11.5,38,0.00,CLR,,0.00,WeatherDisplay:10.37,2013-01-21 21:11:00,
2013-01-21 15:16:00,1.2,-18.5,30.19,West,270,7.1,13.8,38,0.00,CLR,,0.00,WeatherDisplay:10.37,2013-01-21 21:16:00,
2013-01-21 15:21:00,0.7,-19.0,30.19,WNW,292,7.4,14.7,38,0.00,CLR,,0.00,WeatherDisplay:10.37,2013-01-21 21:21:00,
2013-01-21 15:26:00,0.7,-19.0,30.16,WSW,248,7.8,12.7,38,0.00,CLR,,0.00,WeatherDisplay:10.37,2013-01-21 21:26:00,
2013-01-21 15:31:00,0.5,-19.2,30.16,NW,315,6.9,10.0,38,0.00,CLR,,0.00,WeatherDisplay:10.37,2013-01-21 21:31:00,
2013-01-21 15:36:00,1.2,-18.5,30.16,WNW,292,6.2,10.7,38,0.00,CLR,,0.00,WeatherDisplay:10.37,2013-01-21 21:36:00,
2013-01-21 15:42:00,0.5,-19.2,30.19,West,270,9.7,12.7,38,0.00,CLR,,0.00,WeatherDisplay:10.37,2013-01-21 21:42:00,
2013-01-21 15:47:00,1.2,-18.5,30.19,West,270,5.9,8.1,38,0.00,CLR,,0.00,WeatherDisplay:10.37,2013-01-21 21:47:00,
2013-01-21 15:52:00,0.7,-19.0,30.19,West,270,8.5,9.8,38,0.00,CLR,,0.00,WeatherDisplay:10.37,2013-01-21 21:52:00,
2013-01-21 15:57:00,0.3,-19.4,30.19,WNW,292,9.2,12.7,38,0.00,CLR,,0.00,WeatherDisplay:10.37,2013-01-21 21:57:00,
2013-01-21 16:02:00,0.3,-19.4,30.19,WNW,292,5.9,5.9,38,0.00,CLR,,0.00,WeatherDisplay:10.37,2013-01-21 22:02:00,
2013-01-21 16:07:00,0.1,-19.5,30.19,WSW,248,5.6,6.9,38,0.00,CLR,,0.00,WeatherDisplay:10.37,2013-01-21 22:07:00,
2013-01-21 16:12:00,0.3,-19.4,30.19,WNW,292,4.3,8.1,38,0.00,CLR,,0.00,WeatherDisplay:10.37,2013-01-21 22:12:00,
2013-01-21 16:17:00,0.3,-19.3,30.19,West,279,7.0,12.0,38,0.00,CLR,,0.00,WeatherDisplay:10.37,2013-01-21 22:17:00,
2013-01-21 16:22:00,0.5,-19.2,30.19,WNW,292,3.8,10.4,38,0.00,CLR,,0.00,WeatherDisplay:10.37,2013-01-21 22:22:00,
2013-01-21 16:27:00,-0.2,-19.8,30.19,WSW,248,7.4,10.4,38,0.00,CLR,,0.00,WeatherDisplay:10.37,2013-01-21 22:27:00,
2013-01-21 16:32:00,-1.3,-20.8,30.19,WNW,286,6.0,12.0,38,0.00,CLR,,0.00,WeatherDisplay:10.37,2013-01-21 22:32:00,
2013-01-21 16:37:00,-1.8,-21.3,30.19,West,270,9.7,23.0,38,0.00,CLR,,0.00,WeatherDisplay:10.37,2013-01-21 22:37:00,
2013-01-21 16:42:00,-2.0,-21.5,30.19,NW,315,6.9,10.4,38,0.00,CLR,,0.00,WeatherDisplay:10.37,2013-01-21 22:42:00,
2013-01-21 16:47:00,-2.2,-21.6,30.19,SSW,202,5.9,6.9,38,0.00,CLR,,0.00,WeatherDisplay:10.37,2013-01-21 22:47:00,
2013-01-21 16:52:00,-2.4,-21.8,30.19,West,270,2.0,2.4,38,0.00,CLR,,0.00,WeatherDisplay:10.37,2013-01-21 22:52:00,
2013-01-21 16:57:00,-2.6,-22.0,30.16,West,270,6.0,12.7,38,0.00,CLR,,0.00,WeatherDisplay:10.37,2013-01-21 22:57:00,
2013-01-21 17:02:00,-2.7,-22.1,30.16,NW,315,4.5,5.8,38,0.00,CLR,,0.00,WeatherDisplay:10.37,2013-01-21 23:02:00,
2013-01-21 17:07:00,-2.9,-22.3,30.16,NW,315,3.8,5.8,38,0.00,CLR,,0.00,WeatherDisplay:10.37,2013-01-21 23:07:00,
2013-01-21 17:12:00,-2.9,-22.3,30.19,NW,315,8.5,9.2,38,0.00,CLR,,0.00,WeatherDisplay:10.37,2013-01-21 23:12:00,
2013-01-21 17:17:00,-3.1,-22.5,30.19,NW,315,4.5,6.9,38,0.00,CLR,,0.00,WeatherDisplay:10.37,2013-01-21 23:17:00,
2013-01-21 17:22:00,-3.1,-22.5,30.19,WNW,292,3.6,5.8,38,0.00,CLR,,0.00,WeatherDisplay:10.37,2013-01-21 23:22:00,
2013-01-21 17:28:00,-3.1,-22.5,30.19,NW,315,4.5,7.4,38,0.00,CLR,,0.00,WeatherDisplay:10.37,2013-01-21 23:28:00,
2013-01-21 17:33:00,-3.1,-22.5,30.19,WNW,292,2.9,5.8,38,0.00,CLR,,0.00,WeatherDisplay:10.37,2013-01-21 23:33:00,
2013-01-21 17:38:00,-3.3,-22.6,30.19,West,270,6.0,6.0,38,0.00,CLR,,0.00,WeatherDisplay:10.37,2013-01-21 23:38:00,
2013-01-21 17:43:00,-3.3,-22.6,30.19,NW,315,4.7,7.6,38,0.00,CLR,,0.00,WeatherDisplay:10.37,2013-01-21 23:43:00,
2013-01-21 17:48:00,-3.5,-22.8,30.19,WNW,292,4.3,5.8,38,0.00,CLR,,0.00,WeatherDisplay:10.37,2013-01-21 23:48:00,
2013-01-21 17:53:00,-3.5,-22.8,30.19,NW,315,3.8,5.6,38,0.00,CLR,,0.00,WeatherDisplay:10.37,2013-01-21 23:53:00,
2013-01-21 17:58:00,-3.5,-22.8,30.19,NW,315,3.3,4.6,38,0.00,CLR,,0.00,WeatherDisplay:10.37,2013-01-21 23:58:00,
2013-01-21 18:03:00,-3.5,-22.8,30.19,NW,315,2.6,5.8,38,0.00,CLR,,0.00,WeatherDisplay:10.37,2013-01-22 00:03:00,
2013-01-21 18:08:00,-3.5,-22.8,30.19,WNW,292,4.3,8.1,38,0.00,CLR,,0.00,WeatherDisplay:10.37,2013-01-22 00:08:00,
2013-01-21 18:13:00,-3.6,-22.9,30.22,NW,315,2.4,2.6,38,0.00,CLR,,0.00,WeatherDisplay:10.37,2013-01-22 00:13:00,
2013-01-21 18:18:00,-3.6,-22.9,30.22,North,0,2.9,3.1,38,0.00,CLR,,0.00,WeatherDisplay:10.37,2013-01-22 00:18:00,
2013-01-21 18:23:00,-3.8,-23.1,30.22,WNW,292,2.0,5.4,38,0.00,CLR,,0.00,WeatherDisplay:10.37,2013-01-22 00:23:00,
2013-01-21 18:28:00,-3.6,-22.9,30.22,WNW,292,3.3,5.8,38,0.00,CLR,,0.00,WeatherDisplay:10.37,2013-01-22 00:28:00,
2013-01-21 18:33:00,-3.8,-23.1,30.22,NNW,338,2.2,3.5,38,0.00,CLR,,0.00,WeatherDisplay:10.37,2013-01-22 00:33:00,
2013-01-21 18:38:00,-3.8,-23.1,30.22,WNW,292,3.1,5.8,38,0.00,CLR,,0.00,WeatherDisplay:10.37,2013-01-22 00:38:00,
2013-01-21 18:43:00,-3.8,-23.1,30.22,NW,315,4.3,5.8,38,0.00,CLR,,0.00,WeatherDisplay:10.37,2013-01-22 00:43:00,
2013-01-21 18:48:00,-3.8,-23.1,30.22,WNW,292,4.7,7.1,38,0.00,CLR,,0.00,WeatherDisplay:10.37,2013-01-22 00:48:00,
2013-01-21 18:53:00,-3.8,-23.1,30.22,WNW,292,3.8,4.6,38,0.00,CLR,,0.00,WeatherDisplay:10.37,2013-01-22 00:53:00,
2013-01-21 18:58:00,-3.8,-23.1,30.22,SSW,202,2.9,5.8,38,0.00,CLR,,0.00,WeatherDisplay:10.37,2013-01-22 00:58:00,
2013-01-21 19:03:00,-3.8,-23.1,30.22,West,270,2.6,4.6,38,0.00,CLR,,0.00,WeatherDisplay:10.37,2013-01-22 01:03:00,
2013-01-21 19:08:00,-4.0,-23.3,30.22,WNW,292,2.6,3.5,38,0.00,CLR,,0.00,WeatherDisplay:10.37,2013-01-22 01:08:00,
2013-01-21 19:13:00,-4.0,-23.3,30.22,WNW,292,4.7,6.9,38,0.00,CLR,,0.00,WeatherDisplay:10.37,2013-01-22 01:13:00,
2013-01-21 19:18:00,-4.0,-23.3,30.22,WNW,292,2.4,3.5,38,0.00,CLR,,0.00,WeatherDisplay:10.37,2013-01-22 01:18:00,
2013-01-21 19:23:00,-4.0,-23.3,30.22,WNW,292,4.7,5.8,38,0.00,CLR,,0.00,WeatherDisplay:10.37,2013-01-22 01:23:00,
2013-01-21 19:28:00,-4.0,-23.3,30.22,WNW,292,6.0,8.1,38,0.00,CLR,,0.00,WeatherDisplay:10.37,2013-01-22 01:28:00,
2013-01-21 19:33:00,-4.2,-23.4,30.22,NW,315,2.6,3.5,38,0.00,CLR,,0.00,WeatherDisplay:10.37,2013-01-22 01:33:00,
2013-01-21 19:38:00,-4.2,-23.4,30.22,NW,315,6.2,8.1,38,0.00,CLR,,0.00,WeatherDisplay:10.37,2013-01-22 01:38:00,
2013-01-21 19:43:00,-4.0,-23.3,30.22,WNW,292,4.0,6.9,38,0.00,CLR,,0.00,WeatherDisplay:10.37,2013-01-22 01:43:00,
2013-01-21 19:48:00,-4.2,-23.4,30.22,NW,315,4.9,6.9,38,0.00,CLR,,0.00,WeatherDisplay:10.37,2013-01-22 01:48:00,
2013-01-21 19:53:00,-4.2,-23.4,30.22,West,270,8.1,12.7,38,0.00,CLR,,0.00,WeatherDisplay:10.37,2013-01-22 01:53:00,
2013-01-21 19:58:00,-4.2,-23.4,30.22,WNW,292,6.4,8.1,38,0.00,CLR,,0.00,WeatherDisplay:10.37,2013-01-22 01:58:00,
2013-01-21 20:03:00,-4.2,-23.4,30.22,WNW,292,3.8,5.8,38,0.00,CLR,,0.00,WeatherDisplay:10.37,2013-01-22 02:03:00,
2013-01-21 20:08:00,-4.2,-23.4,30.22,NW,315,6.0,8.1,38,0.00,CLR,,0.00,WeatherDisplay:10.37,2013-01-22 02:08:00,
2013-01-21 20:13:00,-4.4,-23.6,30.22,WNW,292,4.5,5.8,38,0.00,CLR,,0.00,WeatherDisplay:10.37,2013-01-22 02:13:00,
2013-01-21 20:18:00,-4.4,-23.6,30.22,WNW,292,4.7,8.1,38,0.00,CLR,,0.00,WeatherDisplay:10.37,2013-01-22 02:18:00,
2013-01-21 20:23:00,-4.4,-23.6,30.22,West,270,6.4,9.2,38,0.00,CLR,,0.00,WeatherDisplay:10.37,2013-01-22 02:23:00,
2013-01-21 20:28:00,-4.2,-23.4,30.25,West,270,8.7,10.4,38,0.00,CLR,,0.00,WeatherDisplay:10.37,2013-01-22 02:28:00,
2013-01-21 20:33:00,-4.4,-23.6,30.25,WNW,292,6.9,9.2,38,0.00,CLR,,0.00,WeatherDisplay:10.37,2013-01-22 02:33:00,
2013-01-21 20:38:00,-4.4,-23.6,30.25,WNW,292,4.0,5.8,38,0.00,CLR,,0.00,WeatherDisplay:10.37,2013-01-22 02:38:00,
2013-01-21 20:43:00,-4.4,-23.6,30.22,WNW,292,6.9,10.4,38,0.00,CLR,,0.00,WeatherDisplay:10.37,2013-01-22 02:43:00,
2013-01-21 20:48:00,-4.4,-23.6,30.22,WNW,292,4.9,8.5,38,0.00,CLR,,0.00,WeatherDisplay:10.37,2013-01-22 02:48:00,
2013-01-21 20:53:00,-4.4,-23.6,30.22,NW,315,5.6,9.2,38,0.00,CLR,,0.00,WeatherDisplay:10.37,2013-01-22 02:53:00,
2013-01-21 20:58:00,-4.4,-23.6,30.25,WNW,292,4.7,5.8,38,0.00,CLR,,0.00,WeatherDisplay:10.37,2013-01-22 02:58:00,
2013-01-21 21:03:00,-4.4,-23.6,30.25,NW,315,6.2,8.1,38,0.00,CLR,,0.00,WeatherDisplay:10.37,2013-01-22 03:03:00,
2013-01-21 21:08:00,-4.4,-23.6,30.25,WNW,292,5.4,8.1,38,0.00,CLR,,0.00,WeatherDisplay:10.37,2013-01-22 03:08:00,
2013-01-21 21:13:00,-4.5,-23.8,30.25,WNW,292,6.9,8.1,38,0.00,CLR,,0.00,WeatherDisplay:10.37,2013-01-22 03:13:00,
2013-01-21 21:18:00,-4.5,-23.8,30.25,WNW,292,5.9,9.2,38,0.00,CLR,,0.00,WeatherDisplay:10.37,2013-01-22 03:18:00,
2013-01-21 21:23:00,-4.5,-23.8,30.25,West,270,2.9,8.7,38,0.00,CLR,,0.00,WeatherDisplay:10.37,2013-01-22 03:23:00,
2013-01-21 21:28:00,-4.7,-23.9,30.25,NW,315,4.9,6.9,38,0.00,CLR,,0.00,WeatherDisplay:10.37,2013-01-22 03:28:00,
2013-01-21 21:33:00,-4.7,-23.9,30.25,WNW,292,4.3,6.9,38,0.00,CLR,,0.00,WeatherDisplay:10.37,2013-01-22 03:33:00,
2013-01-21 21:38:00,-4.7,-23.9,30.25,NW,315,4.0,4.6,38,0.00,CLR,,0.00,WeatherDisplay:10.37,2013-01-22 03:38:00,
2013-01-21 21:43:00,-4.7,-23.9,30.25,WNW,292,5.4,7.4,38,0.00,CLR,,0.00,WeatherDisplay:10.37,2013-01-22 03:43:00,
2013-01-21 21:48:00,-4.7,-23.9,30.25,West,270,6.9,9.2,38,0.00,CLR,,0.00,WeatherDisplay:10.37,2013-01-22 03:48:00,
2013-01-21 21:53:00,-4.7,-23.9,30.25,WNW,292,3.8,5.8,38,0.00,CLR,,0.00,WeatherDisplay:10.37,2013-01-22 03:53:00,
2013-01-21 21:58:00,-4.7,-23.9,30.25,NNW,338,4.5,5.8,38,0.00,CLR,,0.00,WeatherDisplay:10.37,2013-01-22 03:58:00,
2013-01-21 22:03:00,-4.9,-24.1,30.25,West,270,3.6,5.8,38,0.00,CLR,,0.00,WeatherDisplay:10.37,2013-01-22 04:03:00,
2013-01-21 22:08:00,-4.9,-24.1,30.25,NW,315,4.3,5.8,38,0.00,CLR,,0.00,WeatherDisplay:10.37,2013-01-22 04:08:00,
2013-01-21 22:13:00,-4.9,-24.1,30.25,WNW,292,5.4,7.6,38,0.00,CLR,,0.00,WeatherDisplay:10.37,2013-01-22 04:13:00,
2013-01-21 22:18:00,-4.9,-24.1,30.25,NW,315,7.8,10.4,38,0.00,CLR,,0.00,WeatherDisplay:10.37,2013-01-22 04:18:00,
2013-01-21 22:23:00,-4.9,-24.1,30.25,NNW,338,4.9,9.2,38,0.00,CLR,,0.00,WeatherDisplay:10.37,2013-01-22 04:23:00,
2013-01-21 22:28:00,-4.9,-24.1,30.25,NW,315,5.4,6.2,38,0.00,CLR,,0.00,WeatherDisplay:10.37,2013-01-22 04:28:00,
2013-01-21 22:33:00,-5.1,-24.2,30.25,NW,315,4.3,5.9,38,0.00,CLR,,0.00,WeatherDisplay:10.37,2013-01-22 04:33:00,
2013-01-21 22:38:00,-5.1,-24.2,30.25,NNW,338,5.9,11.5,38,0.00,CLR,,0.00,WeatherDisplay:10.37,2013-01-22 04:38:00,
2013-01-21 22:43:00,-5.1,-24.2,30.22,WNW,292,4.0,5.8,38,0.00,CLR,,0.00,WeatherDisplay:10.37,2013-01-22 04:43:00,
2013-01-21 22:48:00,-5.1,-24.2,30.22,NW,315,3.3,4.9,38,0.00,CLR,,0.00,WeatherDisplay:10.37,2013-01-22 04:48:00,
2013-01-21 22:53:00,-5.1,-24.2,30.22,WNW,292,3.8,4.6,38,0.00,CLR,,0.00,WeatherDisplay:10.37,2013-01-22 04:53:00,
2013-01-21 22:58:00,-5.1,-24.2,30.25,WNW,292,3.1,4.6,38,0.00,CLR,,0.00,WeatherDisplay:10.37,2013-01-22 04:58:00,
2013-01-21 23:00:00,-5.3,-24.4,30.25,NW,315,4.0,5.8,38,0.00,CLR,,0.00,WeatherDisplay:10.37,2013-01-22 05:00:00,
2013-01-21 23:01:00,-5.3,-24.4,30.25,WNW,292,4.9,5.8,38,0.00,CLR,,0.00,WeatherDisplay:10.37,2013-01-22 05:01:00,
2013-01-21 23:02:00,-5.3,-24.4,30.25,NW,315,4.9,6.0,38,0.00,CLR,,0.00,WeatherDisplay:10.37,2013-01-22 05:02:00,
2013-01-21 23:07:00,-5.3,-24.4,30.25,WNW,292,2.6,3.8,38,0.00,CLR,,0.00,WeatherDisplay:10.37,2013-01-22 05:07:00,
2013-01-21 23:12:00,-5.4,-24.6,30.25,WNW,292,5.6,8.5,38,0.00,CLR,,0.00,WeatherDisplay:10.37,2013-01-22 05:12:00,
2013-01-21 23:17:00,-5.4,-24.6,30.25,WNW,292,4.7,5.8,38,0.00,CLR,,0.00,WeatherDisplay:10.37,2013-01-22 05:17:00,
2013-01-21 23:22:00,-5.4,-24.6,30.25,West,270,3.1,4.6,38,0.00,CLR,,0.00,WeatherDisplay:10.37,2013-01-22 05:22:00,
2013-01-21 23:27:00,-5.4,-24.6,30.25,WNW,292,5.9,8.1,38,0.00,CLR,,0.00,WeatherDisplay:10.37,2013-01-22 05:27:00,
2013-01-21 23:32:00,-5.4,-24.6,30.25,NNW,338,4.5,5.8,38,0.00,CLR,,0.00,WeatherDisplay:10.37,2013-01-22 05:32:00,
2013-01-21 23:37:00,-5.6,-24.7,30.25,West,270,4.5,5.8,38,0.00,CLR,,0.00,WeatherDisplay:10.37,2013-01-22 05:37:00,
2013-01-21 23:42:00,-5.6,-24.7,30.25,NNW,338,3.8,4.6,38,0.00,CLR,,0.00,WeatherDisplay:10.37,2013-01-22 05:42:00,
2013-01-21 23:47:00,-5.8,-24.9,30.25,NW,315,3.1,3.5,38,0.00,CLR,,0.00,WeatherDisplay:10.37,2013-01-22 05:47:00,
2013-01-21 23:52:00,-6.0,-25.1,30.25,North,0,4.0,4.6,38,0.00,CLR,,0.00,WeatherDisplay:10.37,2013-01-22 05:52:00,
2013-01-21 23:57:00,-6.0,-25.1,30.25,WNW,292,5.9,8.1,38,0.00,CLR,,0.00,WeatherDisplay:10.37,2013-01-22 05:57:00,